When you browse on this site, cookies collect data to enhance your experience and personalize the content and advertising you see.
Visit our Privacy Policy to learn more. By continuing to use the site, you agree to this use of cookies and data.
  • In United Kingdom
  • List of Countries
  • For 7 days
  • Water Temperature
  • Weather Map
  • Weather Widgets
  • user-avatar
    Login

    Hourly Weather Ciurea

    Today, 16 September, Monday

    Time Temperature Precipitation Wind Pressure Humidity
    00:00 +13°C° 0 mm 3 mps 742 mmHg 52%
    01:00 +13°C° 0 mm 2 mps 742 mmHg 56%
    02:00 +12°C° 0 mm 2 mps 741 mmHg 61%
    03:00 +12°C° 0 mm 1 mps 741 mmHg 63%
    04:00 +12°C° 0 mm 1 mps 741 mmHg 64%
    05:00 +11°C° 0 mm 1 mps 741 mmHg 66%
    06:00 +13°C° 0 mm 1 mps 741 mmHg 58%
    07:00 +15°C° 0 mm 1 mps 741 mmHg 50%
    08:00 +18°C° 0 mm 1 mps 741 mmHg 42%
    09:00 +20°C° 0 mm 2 mps 740 mmHg 36%
    10:00 +23°C° 0 mm 2 mps 740 mmHg 31%
    11:00 +25°C° 0 mm 2 mps 740 mmHg 25%
    12:00 +27°C° 0 mm 2 mps 740 mmHg 23%
    13:00 +28°C° 0 mm 2 mps 739 mmHg 22%
    14:00 +29°C° 0 mm 2 mps 739 mmHg 20%
    15:00 +28°C° 0 mm 2 mps 739 mmHg 21%
    16:00 +28°C° 0 mm 1 mps 738 mmHg 22%
    17:00 +28°C° 0 mm 1 mps 738 mmHg 23%
    18:00 +25°C° 0 mm 1 mps 738 mmHg 27%
    19:00 +23°C° 0 mm 1 mps 738 mmHg 31%
    20:00 +20°C° 0 mm 1 mps 738 mmHg 35%
    21:00 +18°C° 0 mm 2 mps 738 mmHg 43%
    22:00 +17°C° 0 mm 2 mps 738 mmHg 52%
    23:00 +16°C° 0 mm 2 mps 738 mmHg 60%

    Tomorrow, 17 September, Tuesday

    Time Temperature Precipitation Wind Pressure Humidity
    00:00 +15°C° 0 mm 2 mps 738 mmHg 65%
    01:00 +15°C° 0 mm 1 mps 738 mmHg 70%
    02:00 +14°C° 0 mm 1 mps 738 mmHg 75%
    03:00 +14°C° 0 mm 1 mps 737 mmHg 75%
    04:00 +14°C° 0 mm 1 mps 737 mmHg 76%
    05:00 +14°C° 0 mm 1 mps 737 mmHg 76%
    06:00 +15°C° 0 mm 1 mps 737 mmHg 73%
    07:00 +16°C° 0 mm 1 mps 737 mmHg 70%
    08:00 +16°C° 0 mm 2 mps 737 mmHg 67%
    09:00 +16°C° 0.1 mm 2 mps 737 mmHg 71%
    10:00 +16°C° 0.1 mm 2 mps 737 mmHg 74%
    11:00 +15°C° 0.1 mm 2 mps 737 mmHg 78%
    12:00 +16°C° 0.1 mm 2 mps 737 mmHg 75%
    13:00 +17°C° 0.1 mm 2 mps 737 mmHg 71%
    14:00 +18°C° 0.1 mm 2 mps 737 mmHg 68%
    15:00 +18°C° 0 mm 2 mps 736 mmHg 67%
    16:00 +18°C° 0 mm 2 mps 736 mmHg 66%
    17:00 +18°C° 0 mm 2 mps 736 mmHg 65%
    18:00 +17°C° 0 mm 2 mps 735 mmHg 72%
    19:00 +15°C° 0 mm 1 mps 735 mmHg 80%
    20:00 +12°C° 0 mm 0 mps 735 mmHg 87%
    21:00 +13°C° 0 mm 1 mps 735 mmHg 87%
    22:00 +13°C° 0 mm 1 mps 735 mmHg 86%
    23:00 +13°C° 0 mm 1 mps 735 mmHg 85%

    Day after tomorrow, 18 September, Wednesday

    Time Temperature Precipitation Wind Pressure Humidity
    00:00 +14°C° 0 mm 2 mps 734 mmHg 82%
    01:00 +13°C° 0 mm 3 mps 734 mmHg 78%
    02:00 +14°C° 0 mm 3 mps 734 mmHg 74%
    03:00 +14°C° 0 mm 3 mps 734 mmHg 75%
    04:00 +13°C° 0 mm 3 mps 734 mmHg 76%
    05:00 +13°C° 0 mm 4 mps 735 mmHg 77%
    06:00 +13°C° 0 mm 5 mps 735 mmHg 73%
    07:00 +11°C° 0 mm 6 mps 736 mmHg 70%
    08:00 +11°C° 0 mm 8 mps 737 mmHg 66%
    09:00 +11°C° 0 mm 7 mps 737 mmHg 59%
    10:00 +11°C° 0 mm 7 mps 738 mmHg 52%
    11:00 +11°C° 0 mm 7 mps 739 mmHg 46%
    12:00 +14°C° 0 mm 7 mps 739 mmHg 38%
    13:00 +16°C° 0 mm 8 mps 739 mmHg 30%
    14:00 +18°C° 0 mm 8 mps 739 mmHg 23%
    15:00 +17°C° 0 mm 8 mps 740 mmHg 26%
    16:00 +16°C° 0 mm 8 mps 740 mmHg 29%
    17:00 +15°C° 0 mm 7 mps 740 mmHg 33%
    18:00 +13°C° 0 mm 6 mps 741 mmHg 41%
    19:00 +11°C° 0 mm 4 mps 742 mmHg 50%
    20:00 +8°C° 0 mm 3 mps 742 mmHg 58%
    21:00 +8°C° 0 mm 2 mps 743 mmHg 61%
    22:00 +7°C° 0 mm 2 mps 743 mmHg 64%
    23:00 +6°C° 0 mm 2 mps 743 mmHg 67%

    19 September, Thursday

    Time Temperature Precipitation Wind Pressure Humidity
    00:00 +7°C° 0 mm 1 mps 743 mmHg 69%
    01:00 +6°C° 0 mm 1 mps 743 mmHg 70%
    02:00 +6°C° 0 mm 1 mps 744 mmHg 72%
    03:00 +6°C° 0 mm 1 mps 743 mmHg 72%
    04:00 +5°C° 0 mm 1 mps 743 mmHg 73%
    05:00 +4°C° 0 mm 2 mps 743 mmHg 74%
    06:00 +6°C° 0 mm 2 mps 743 mmHg 65%
    07:00 +8°C° 0 mm 2 mps 743 mmHg 57%
    08:00 +10°C° 0 mm 2 mps 743 mmHg 49%
    09:00 +13°C° 0 mm 2 mps 743 mmHg 42%
    10:00 +15°C° 0 mm 2 mps 743 mmHg 36%
    11:00 +17°C° 0 mm 2 mps 743 mmHg 30%
    12:00 +18°C° 0 mm 2 mps 743 mmHg 28%
    13:00 +19°C° 0 mm 2 mps 742 mmHg 25%
    14:00 +19°C° 0 mm 2 mps 742 mmHg 23%
    15:00 +18°C° 0 mm 4 mps 742 mmHg 27%
    16:00 +17°C° 0 mm 5 mps 742 mmHg 31%
    17:00 +16°C° 0 mm 6 mps 742 mmHg 34%
    18:00 +13°C° 0 mm 5 mps 742 mmHg 41%
    19:00 +11°C° 0 mm 4 mps 742 mmHg 48%
    20:00 +9°C° 0 mm 2 mps 743 mmHg 54%
    21:00 +8°C° 0 mm 2 mps 743 mmHg 55%
    22:00 +7°C° 0 mm 2 mps 743 mmHg 56%
    23:00 +7°C° 0 mm 2 mps 743 mmHg 56%

    20 September, Friday

    Time Temperature Precipitation Wind Pressure Humidity
    00:00 +7°C° 0 mm 1 mps 743 mmHg 58%
    01:00 +7°C° 0 mm 1 mps 743 mmHg 61%
    02:00 +6°C° 0 mm 1 mps 743 mmHg 63%
    03:00 +5°C° 0 mm 2 mps 743 mmHg 67%
    04:00 +5°C° 0 mm 2 mps 743 mmHg 71%
    05:00 +5°C° 0 mm 2 mps 743 mmHg 75%
    06:00 +5°C° 0 mm 4 mps 743 mmHg 73%
    07:00 +5°C° 0 mm 6 mps 743 mmHg 70%
    08:00 +6°C° 0 mm 7 mps 743 mmHg 67%
    09:00 +9°C° 0 mm 8 mps 744 mmHg 59%
    10:00 +10°C° 0 mm 8 mps 744 mmHg 52%
    11:00 +12°C° 0 mm 8 mps 744 mmHg 44%
    12:00 +12°C° 0 mm 8 mps 744 mmHg 39%
    13:00 +13°C° 0 mm 8 mps 744 mmHg 33%
    14:00 +15°C° 0 mm 8 mps 744 mmHg 28%
    15:00 +13°C° 0 mm 8 mps 744 mmHg 30%
    16:00 +12°C° 0 mm 8 mps 744 mmHg 32%
    17:00 +12°C° 0 mm 8 mps 744 mmHg 33%
    18:00 +10°C° 0 mm 6 mps 744 mmHg 40%
    19:00 +8°C° 0 mm 4 mps 745 mmHg 47%
    20:00 +7°C° 0 mm 2 mps 745 mmHg 54%
    21:00 +6°C° 0 mm 2 mps 746 mmHg 56%
    22:00 +6°C° 0 mm 2 mps 746 mmHg 58%
    23:00 +5°C° 0 mm 2 mps 746 mmHg 60%

    21 September, Saturday

    Time Temperature Precipitation Wind Pressure Humidity
    00:00 +5°C° 0 mm 2 mps 746 mmHg 63%
    01:00 +4°C° 0 mm 2 mps 746 mmHg 66%
    02:00 +4°C° 0 mm 2 mps 746 mmHg 68%
    03:00 +4°C° 0 mm 2 mps 746 mmHg 70%
    04:00 +4°C° 0 mm 2 mps 746 mmHg 72%
    05:00 +4°C° 0 mm 1 mps 746 mmHg 73%
    06:00 +5°C° 0 mm 2 mps 746 mmHg 66%
    07:00 +7°C° 0 mm 2 mps 746 mmHg 58%
    08:00 +8°C° 0 mm 2 mps 746 mmHg 51%
    09:00 +10°C° 0 mm 3 mps 746 mmHg 45%
    10:00 +12°C° 0 mm 4 mps 746 mmHg 40%
    11:00 +14°C° 0 mm 5 mps 747 mmHg 34%
    12:00 +15°C° 0 mm 5 mps 746 mmHg 33%
    13:00 +17°C° 0 mm 4 mps 746 mmHg 32%
    14:00 +18°C° 0 mm 4 mps 745 mmHg 30%
    15:00 +17°C° 0 mm 4 mps 745 mmHg 33%
    16:00 +15°C° 0 mm 4 mps 745 mmHg 36%
    17:00 +15°C° 0 mm 4 mps 745 mmHg 38%
    18:00 +13°C° 0 mm 3 mps 745 mmHg 48%
    19:00 +12°C° 0 mm 2 mps 746 mmHg 57%
    20:00 +11°C° 0 mm 1 mps 746 mmHg 67%
    21:00 +11°C° 0 mm 1 mps 746 mmHg 67%
    22:00 +11°C° 0 mm 1 mps 746 mmHg 68%
    23:00 +11°C° 0 mm 1 mps 746 mmHg 68%
    Show more